Home   Weather   Sendai   Past weeks

Flag for Japan Past Weather in Sendai, Japan — Yesterday and Last 2 Weeks

Now
61 °F

Scattered clouds.


Feels Like: 61 °F
Forecast: 56 / 71 °F
Wind: 3 mph from North

Location: Sendai Airport

Current Time: May 28, 2017 at 6:24:53 am

Latest Report: May 28, 2017 at 6:00 am


Visibility: N/A

Pressure: 29.83 "Hg

Humidity: 94%

Dew Point: 59 °F

Location of SendaiLocation

Past Weather in Sendai — Graph

°F

Sendai Temperature Yesterday

Maximum temperature yesterday: 64 °F (at 1:00 pm)
Minimum temperature yesterday: 59 °F (at 6:00 am)
Average temperature yesterday: 62 °F

High & Low Weather Summary for the Past Weeks

 TemperatureHumidityPressure
High77 °F (May 22, 11:00 am)100% (May 13, 8:00 am)30.07 "Hg (May 13, 8:00 am)
Low52 °F (May 17, 6:00 am)33% (May 16, 2:00 pm)29.65 "Hg (May 26, 5:21 pm)
Average62 °F81%29.85 "Hg
* Reported May 12 9:00 pm — May 27 9:00 pm, Sendai. Weather by CustomWeather, © 2017

Note: Actual official high and low records may vary slightly from our data, if they occured in-between our weather recording intervals... More about our weather records

Advertising

Sendai Weather History for the Previous 24 Hours

Scroll right to see more
 ConditionsComfort  
Time TempWeatherWind HumidityBarometerVisibility
9:00 pm
Sat, May 27
59 °FPartly cloudy.9 mph94%29.83 "HgN/A
8:00 pm63 °FPartly cloudy.6 mph88%29.80 "HgN/A
7:00 pm63 °FPartly cloudy.5 mph88%29.80 "HgN/A
6:00 pm63 °FPartly sunny.7 mph83%29.77 "HgN/A
5:00 pm64 °FPartly sunny.7 mph78%29.77 "HgN/A
4:00 pm64 °FPartly sunny.9 mph78%29.77 "HgN/A
3:00 pm64 °FBroken clouds.9 mph78%29.77 "HgN/A
2:00 pm64 °FBroken clouds.8 mph78%29.77 "HgN/A
1:00 pm64 °FBroken clouds.6 mph78%29.77 "HgN/A
12:00 pm63 °FBroken clouds.7 mph83%29.77 "HgN/A
11:00 am63 °FSprinkles. Broken clouds.6 mph88%29.77 "HgN/A
10:00 am63 °FSprinkles. Broken clouds.3 mph88%29.74 "HgN/A
9:00 am61 °FSprinkles. Fog.3 mph94%29.74 "Hg2 mi
8:00 am61 °FBroken clouds.1 mph94%29.74 "HgN/A
7:36 am59 °FSprinkles. Broken clouds.2 mph94%29.74 "Hg4 mi
7:00 am59 °FSprinkles. Fog.1 mph94%29.74 "Hg2 mi
6:00 am59 °FSprinkles. Partly sunny.2 mph94%29.71 "Hg4 mi
Weather by CustomWeather, © 2017

See weather overviewHow to use our weather pages